Home > Time Zones > World Clock > Weather > Japan > Kyoto > Past weeks

Flag for Japan Weather past 2 weeks in Kyoto, Japan

Now
72 °F

Mild.


Feels Like: 73 °F
Forecast: 63 / 81 °F
Wind: 3 mph from East

Location: Osaka

Current Time: Jul 6, 2015 at 3:20:15 AM

Latest Report: Jul 6, 2015 at 2:00 AM


Visibility: N/A

Pressure: 29.84 "Hg

Humidity: 77%

Dew point: 64 °F

Location of KyotoLocation

Historic Weather in Kyoto — Graph

°F

Kyoto temperature yesterday

Maximum temperature yesterday: 76 °F (at 3:00 PM)
Minimum temperature yesterday: 68 °F (at 2:00 AM)
Average temperature yesterday: 72 °F

Past Weeks' High & Low Weather Summary

 TemperatureHumidityPressure
High86 °F (Jun 24, 3:00 PM)98% (Jun 27, 1:00 AM)29.90 "Hg (Jun 27, 1:00 AM)
Low67 °F (Jul 1, 1:00 AM)42% (Jun 29, 3:00 PM)29.23 "Hg (Jul 1, 8:00 AM)
Average75 °F73%29.72 "Hg
* Reported Jun 21 2:00 AM — Jul 6 2:00 AM, Kyoto, Weather by CustomWeather, © 2015

Note: Actual official high and low records may vary slightly from our data, if they occured in-between our weather recording intervals... More about our weather records

Advertising

Kyoto weather history for previous 24 hours

 ConditionsComfort  
Time TempWeatherWind HumidityBarometerVisibility
2:00 AM
Mon, Jul 6
72 °FMild.3 mph77%29.84 "HgN/A
1:00 AM72 °FMild.7 mph74%29.85 "HgN/A
12:00 AM72 °FMild.5 mph74%29.84 "HgN/A
11:00 PM
Sun, Jul 5
73 °FMild.2 mph72%29.85 "HgN/A
10:00 PM74 °FMild.3 mph72%29.86 "HgN/A
9:00 PM74 °FOvercast.6 mph69%29.85 "Hg9 mi
8:00 PM74 °FMild.3 mph70%29.84 "HgN/A
7:00 PM75 °FMild.3 mph68%29.84 "HgN/A
6:00 PM75 °FOvercast.6 mph68%29.82 "Hg9 mi
5:00 PM76 °FMild.5 mph66%29.81 "HgN/A
4:00 PM76 °FMild.5 mph68%29.82 "HgN/A
3:00 PM76 °FLight rain. Overcast.3 mph67%29.82 "Hg12 mi
2:00 PM76 °FMild.5 mph65%29.83 "HgN/A
1:00 PM74 °FMild.2 mph66%29.84 "HgN/A
11:00 AM72 °FMild.2 mph77%29.85 "HgN/A
10:00 AM72 °FMild.6 mph82%29.85 "HgN/A
9:00 AM70 °FFog.3 mph85%29.85 "Hg5 mi
8:00 AM69 °FMild.3 mph90%29.86 "HgN/A
7:00 AM69 °FMild.5 mph90%29.86 "HgN/A
6:00 AM68 °FFog.6 mph93%29.87 "Hg5 mi
5:00 AM68 °FMild.5 mph96%29.86 "HgN/A
4:00 AM68 °FMild.5 mph95%29.85 "HgN/A
3:00 AM68 °FLight rain. Overcast.3 mph94%29.85 "Hg5 mi
Weather by CustomWeather, © 2015

See weather overviewHow to use our weather pages